| time (UTC) | temp C | wind direction | speed KPH | gust KPH | rain 1hr cm | rain 24hr cm | rain mn cm | humidity % | barometer mb |
| 20260503072918 | 17 | -1 | 0.0 | 0.0 | 0.00 | 0.00 | 0.00 | 3 | 1006.1 |
| 20260503072410 | 17 | -1 | 0.0 | 0.0 | 0.00 | 0.00 | 0.00 | 3 | 1004.8 |
| 20260503071902 | 16 | -1 | 0.0 | 0.0 | 0.00 | 0.00 | 0.00 | 3 | 1005.8 |
| 20260503071355 | 16 | -1 | 6.4 | 9.7 | 0.00 | 0.00 | 0.00 | 3 | 1005.7 |
| 20260503070848 | 16 | -1 | 6.4 | 9.7 | 0.00 | 0.00 | 0.00 | 3 | 1005.6 |
| 20260503070341 | 16 | -1 | 6.4 | 11.3 | 0.00 | 0.00 | 0.00 | 3 | 1005.0 |
| 20260503060211 | 15 | -1 | 0.0 | 0.0 | 0.00 | 0.00 | 0.00 | 4 | 1007.3 |
| 20260503054649 | 15 | -1 | 0.0 | 0.0 | 0.00 | 0.00 | 0.00 | 3 | 1006.7 |
| 20260503054142 | 15 | -1 | 0.0 | 0.0 | 0.00 | 0.00 | 0.00 | 4 | 1006.7 |
| 20260503053635 | 16 | -1 | 0.0 | 0.0 | 0.00 | 0.00 | 0.00 | 3 | 1007.3 |
| 20260503053128 | 16 | -1 | 0.0 | 0.0 | 0.00 | 0.00 | 0.00 | 3 | 1005.7 |
| 20260503052621 | 15 | -1 | 0.0 | 0.0 | 0.00 | 0.00 | 0.00 | 3 | 1005.0 |
| 20260503052114 | 15 | -1 | 0.0 | 0.0 | 0.00 | 0.00 | 0.00 | 3 | 1004.4 |
| 20260503051607 | 15 | -1 | 0.0 | 0.0 | 0.00 | 0.00 | 0.00 | 3 | 1005.5 |
| 20260503051100 | 15 | -1 | 0.0 | 0.0 | 0.00 | 0.00 | 0.00 | 3 | 1005.0 |
| 20260503050553 | 15 | -1 | 0.0 | 0.0 | 0.00 | 0.00 | 0.00 | 3 | 1004.4 |
| 20260503050046 | 13 | -1 | 0.0 | 0.0 | 0.00 | 0.00 | 0.00 | 3 | 1003.8 |
| 20260503045539 | 13 | -1 | 0.0 | 0.0 | 0.00 | 0.00 | 0.00 | 3 | 1001.7 |
| 20260503045032 | 13 | -1 | 0.0 | 0.0 | 0.00 | 0.00 | 0.00 | 3 | 1000.6 |
| 20260503044524 | 13 | -1 | 0.0 | 0.0 | 0.00 | 0.00 | 0.00 | 3 | 1000.2 |
| 20260503044017 | 14 | -1 | 0.0 | 0.0 | 0.00 | 0.00 | 0.00 | 3 | 1001.2 |
| 20260503043510 | 13 | -1 | 0.0 | 0.0 | 0.00 | 0.00 | 0.00 | 3 | 1000.8 |
| 20260503043003 | 12 | -1 | 0.0 | 0.0 | 0.00 | 0.00 | 0.00 | 4 | 999.6 |
| 20260503042456 | 12 | -1 | 0.0 | 0.0 | 0.00 | 0.00 | 0.00 | 4 | 999.8 |
| 20260503041949 | 12 | -1 | 0.0 | 0.0 | 0.00 | 0.00 | 0.00 | 4 | 998.8 |
| 20260503041442 | 12 | -1 | 0.0 | 0.0 | 0.00 | 0.00 | 0.00 | 4 | 998.9 |
| 20260503040935 | 12 | -1 | 0.0 | 0.0 | 0.00 | 0.00 | 0.00 | 4 | 998.5 |
| 20260503040428 | 12 | -1 | 0.0 | 0.0 | 0.00 | 0.00 | 0.00 | 4 | 998.9 |
| 20260503035921 | 12 | -1 | 0.0 | 0.0 | 0.00 | 0.00 | 0.00 | 4 | 997.4 |
| 20260503035414 | 12 | -1 | 0.0 | 0.0 | 0.00 | 0.00 | 0.00 | 4 | 997.1 |
| 20260503034907 | 12 | -1 | 0.0 | 0.0 | 0.00 | 0.00 | 0.00 | 4 | 996.9 |
| 20260503034400 | 12 | -1 | 0.0 | 0.0 | 0.00 | 0.00 | 0.00 | 4 | 996.5 |
| 20260503033853 | 12 | -1 | 0.0 | 0.0 | 0.00 | 0.00 | 0.00 | 4 | 996.9 |
| 20260503033346 | 12 | -1 | 0.0 | 0.0 | 0.00 | 0.00 | 0.00 | 4 | 997.1 |
| 20260503032838 | 12 | -1 | 0.0 | 0.0 | 0.00 | 0.00 | 0.00 | 4 | 996.9 |
| 20260503032331 | 12 | -1 | 0.0 | 0.0 | 0.00 | 0.00 | 0.00 | 4 | 995.9 |
| 20260503031823 | 11 | -1 | 0.0 | 0.0 | 0.00 | 0.00 | 0.00 | 4 | 996.0 |
| 20260503031316 | 11 | -1 | 0.0 | 0.0 | 0.00 | 0.00 | 0.00 | 4 | 996.5 |
| 20260503030809 | 11 | -1 | 0.0 | 0.0 | 0.00 | 0.00 | 0.00 | 4 | 996.6 |
| 20260503030303 | 11 | -1 | 0.0 | 0.0 | 0.00 | 0.00 | 0.00 | 4 | 996.0 |
| 20260503025755 | 11 | -1 | 0.0 | 0.0 | 0.00 | 0.00 | 0.00 | 4 | 996.7 |
| 20260503025248 | 12 | -1 | 0.0 | 0.0 | 0.00 | 0.00 | 0.00 | 4 | 996.8 |
| 20260503024741 | 12 | -1 | 0.0 | 0.0 | 0.00 | 0.00 | 0.00 | 4 | 997.2 |
| 20260503024234 | 12 | -1 | 0.0 | 0.0 | 0.00 | 0.00 | 0.00 | 4 | 996.3 |
| 20260503023727 | 12 | -1 | 0.0 | 0.0 | 0.00 | 0.00 | 0.00 | 4 | 996.9 |
| 20260503023220 | 12 | -1 | 0.0 | 0.0 | 0.00 | 0.00 | 0.00 | 4 | 997.3 |
| 20260503022713 | 12 | -1 | 0.0 | 0.0 | 0.00 | 0.00 | 0.00 | 4 | 997.1 |
| 20260503022205 | 13 | -1 | 0.0 | 0.0 | 0.00 | 0.00 | 0.00 | 4 | 998.0 |
| 20260503021658 | 13 | -1 | 0.0 | 0.0 | 0.00 | 0.00 | 0.00 | 4 | 996.3 |
| 20260503021150 | 13 | -1 | 0.0 | 0.0 | 0.00 | 0.00 | 0.00 | 4 | 996.2 |
| 20260503020642 | 13 | -1 | 0.0 | 0.0 | 0.00 | 0.00 | 0.00 | 4 | 996.7 |
| 20260503020135 | 13 | -1 | 0.0 | 0.0 | 0.00 | 0.00 | 0.00 | 4 | 996.9 |
| 20260503015628 | 14 | -1 | 0.0 | 0.0 | 0.00 | 0.00 | 0.00 | 4 | 996.3 |
| 20260503015120 | 14 | -1 | 0.0 | 0.0 | 0.00 | 0.00 | 0.00 | 4 | 996.5 |
| 20260503014613 | 14 | -1 | 0.0 | 0.0 | 0.00 | 0.00 | 0.00 | 4 | 996.2 |
| 20260503014106 | 14 | -1 | 0.0 | 0.0 | 0.00 | 0.00 | 0.00 | 4 | 996.7 |
| 20260503013559 | 13 | -1 | 0.0 | 0.0 | 0.00 | 0.00 | 0.00 | 3 | 998.6 |
| 20260503013052 | 13 | -1 | 9.7 | 16.1 | 0.00 | 0.00 | 0.00 | 4 | 997.1 |
| 20260503012545 | 13 | -1 | 0.0 | 0.0 | 0.00 | 0.00 | 0.00 | 4 | 995.5 |
| 20260503012038 | 13 | -1 | 0.0 | 0.0 | 0.00 | 0.00 | 0.00 | 4 | 996.2 |
| 20260503011531 | 13 | -1 | 0.0 | 0.0 | 0.00 | 0.00 | 0.00 | 3 | 997.7 |
| 20260503011024 | 14 | -1 | 0.0 | 0.0 | 0.00 | 0.00 | 0.00 | 3 | 997.8 |
| 20260503010517 | 14 | -1 | 0.0 | 0.0 | 0.00 | 0.00 | 0.00 | 3 | 998.0 |
| 20260503010010 | 14 | -1 | 0.0 | 0.0 | 0.00 | 0.00 | 0.00 | 3 | 997.2 |
| 20260503005503 | 14 | -1 | 0.0 | 0.0 | 0.00 | 0.00 | 0.00 | 3 | 997.8 |
| 20260503004956 | 14 | -1 | 0.0 | 0.0 | 0.00 | 0.00 | 0.00 | 3 | 999.8 |
| 20260503004449 | 14 | -1 | 0.0 | 0.0 | 0.00 | 0.00 | 0.00 | 3 | 1000.7 |
| 20260503003942 | 14 | -1 | 0.0 | 0.0 | 0.00 | 0.00 | 0.00 | 3 | 998.2 |
| 20260503003435 | 14 | -1 | 0.0 | 0.0 | 0.00 | 0.00 | 0.00 | 3 | 998.5 |
| 20260503002928 | 13 | -1 | 0.0 | 0.0 | 0.00 | 0.00 | 0.00 | 3 | 999.1 |
| 20260503002419 | 14 | -1 | 0.0 | 0.0 | 0.00 | 0.00 | 0.00 | 3 | 996.8 |
| 20260503001910 | 15 | -1 | 0.0 | 0.0 | 0.00 | 0.00 | 0.00 | 3 | 999.8 |
| 20260503001403 | 15 | -1 | 4.8 | 4.8 | 0.00 | 0.00 | 0.00 | 3 | 999.3 |
| 20260503000856 | 15 | -1 | 0.0 | 0.0 | 0.00 | 0.00 | 0.00 | 3 | 999.7 |
| 20260503000349 | 15 | -1 | 0.0 | 0.0 | 0.00 | 0.00 | 0.00 | 3 | 999.2 |
| 20260502235842 | 15 | -1 | 0.0 | 0.0 | 0.00 | 0.00 | 0.00 | 3 | 999.6 |
| 20260502235335 | 15 | -1 | 0.0 | 0.0 | 0.00 | 0.00 | 0.00 | 3 | 998.6 |
| 20260502234828 | 15 | -1 | 0.0 | 0.0 | 0.00 | 0.00 | 0.00 | 3 | 999.0 |
| 20260502234321 | 15 | -1 | 0.0 | 0.0 | 0.00 | 0.00 | 0.00 | 3 | 999.5 |
| 20260502233814 | 15 | -1 | 0.0 | 0.0 | 0.00 | 0.00 | 0.00 | 3 | 998.4 |
| 20260502233306 | 15 | -1 | 4.8 | 0.0 | 0.00 | 0.00 | 0.00 | 3 | 997.9 |
| 20260502232759 | 15 | -1 | 0.0 | 0.0 | 0.00 | 0.00 | 0.00 | 3 | 999.4 |
| 20260502232252 | 15 | -1 | 0.0 | 0.0 | 0.00 | 0.00 | 0.00 | 3 | 998.5 |
| 20260502231745 | 15 | -1 | 0.0 | 0.0 | 0.00 | 0.00 | 0.00 | 3 | 1000.3 |
| 20260502231237 | 15 | -1 | 0.0 | 0.0 | 0.00 | 0.00 | 0.00 | 3 | 1000.6 |
| 20260502230729 | 15 | -1 | 4.8 | 6.4 | 0.00 | 0.00 | 0.00 | 3 | 1000.9 |
| 20260502230222 | 15 | -1 | 0.0 | 0.0 | 0.00 | 0.00 | 0.00 | 3 | 1000.9 |
| 20260502225715 | 15 | -1 | 0.0 | 0.0 | 0.00 | 0.00 | 0.00 | 3 | 1000.0 |
| 20260502225208 | 15 | -1 | 0.0 | 0.0 | 0.00 | 0.00 | 0.00 | 3 | 998.5 |
| 20260502224700 | 15 | -1 | 0.0 | 0.0 | 0.00 | 0.00 | 0.00 | 3 | 997.5 |
| 20260502224153 | 15 | -1 | 4.8 | 0.0 | 0.00 | 0.00 | 0.00 | 3 | 998.2 |
| 20260502223645 | 15 | -1 | 6.4 | 9.7 | 0.00 | 0.00 | 0.00 | 3 | 996.9 |
| 20260502223137 | 16 | -1 | 11.3 | 17.7 | 0.00 | 0.00 | 0.00 | 3 | 996.7 |
| 20260502222630 | 16 | -1 | 12.9 | 17.7 | 0.00 | 0.00 | 0.00 | 3 | 995.8 |
| 20260502222123 | 16 | -1 | 12.9 | 19.3 | 0.00 | 0.00 | 0.00 | 3 | 995.7 |
| 20260502221616 | 16 | -1 | 12.9 | 17.7 | 0.00 | 0.00 | 0.00 | 3 | 995.9 |
| 20260502221108 | 16 | -1 | 9.7 | 17.7 | 0.00 | 0.00 | 0.00 | 3 | 996.4 |
| 20260502220601 | 16 | -1 | 8.0 | 14.5 | 0.00 | 0.00 | 0.00 | 3 | 996.7 |
| 20260502220053 | 16 | -1 | 8.0 | 14.5 | 0.00 | 0.00 | 0.00 | 3 | 998.2 |
| 20260502215545 | 16 | -1 | 9.7 | 16.1 | 0.00 | 0.00 | 0.00 | 3 | 999.0 |
| 20260502215038 | 16 | -1 | 11.3 | 17.7 | 0.00 | 0.00 | 0.00 | 3 | 999.9 |
| 20260502214531 | 16 | -1 | 8.0 | 12.9 | 0.00 | 0.00 | 0.00 | 2 | 1000.2 |
| 20260502214024 | 17 | -1 | 6.4 | 11.3 | 0.00 | 0.00 | 0.00 | 2 | 1000.7 |
| 20260502213517 | 17 | -1 | 6.4 | 11.3 | 0.00 | 0.00 | 0.00 | 2 | 1000.9 |
| 20260502213009 | 16 | -1 | 8.0 | 11.3 | 0.00 | 0.00 | 0.00 | 2 | 1000.4 |
| 20260502212502 | 17 | -1 | 8.0 | 12.9 | 0.00 | 0.00 | 0.00 | 2 | 1000.9 |
| 20260502211955 | 17 | -1 | 8.0 | 14.5 | 0.00 | 0.00 | 0.00 | 2 | 1001.2 |
| 20260502211448 | 17 | -1 | 9.7 | 12.9 | 0.00 | 0.00 | 0.00 | 2 | 1000.7 |
| 20260502210941 | 17 | -1 | 8.0 | 11.3 | 0.00 | 0.00 | 0.00 | 2 | 1000.5 |
| 20260502210434 | 17 | -1 | 6.4 | 11.3 | 0.00 | 0.00 | 0.00 | 3 | 1000.4 |
| 20260502205927 | 17 | -1 | 8.0 | 11.3 | 0.00 | 0.00 | 0.00 | 3 | 1001.0 |
| 20260502205420 | 17 | -1 | 9.7 | 12.9 | 0.00 | 0.00 | 0.00 | 3 | 1001.2 |
| 20260502204911 | 17 | -1 | 9.7 | 12.9 | 0.00 | 0.00 | 0.00 | 3 | 1001.0 |
| 20260502204403 | 17 | -1 | 11.3 | 16.1 | 0.00 | 0.00 | 0.00 | 3 | 1001.0 |
| 20260502203855 | 17 | -1 | 11.3 | 16.1 | 0.00 | 0.00 | 0.00 | 3 | 1001.0 |
| 20260502203347 | 17 | -1 | 12.9 | 17.7 | 0.00 | 0.00 | 0.00 | 3 | 1001.0 |
| 20260502202839 | 17 | -1 | 8.0 | 16.1 | 0.00 | 0.00 | 0.00 | 3 | 1001.6 |
| 20260502202332 | 17 | -1 | 8.0 | 14.5 | 0.00 | 0.00 | 0.00 | 3 | 1002.4 |
| 20260502201825 | 17 | -1 | 6.4 | 11.3 | 0.00 | 0.00 | 0.00 | 2 | 1002.6 |
| 20260502201318 | 17 | -1 | 8.0 | 12.9 | 0.00 | 0.00 | 0.00 | 2 | 1001.6 |
| 20260502200811 | 17 | -1 | 8.0 | 12.9 | 0.00 | 0.00 | 0.00 | 2 | 1001.5 |
| 20260502200304 | 17 | -1 | 8.0 | 14.5 | 0.00 | 0.00 | 0.00 | 2 | 1002.3 |
| 20260502195756 | 17 | -1 | 0.0 | 0.0 | 0.00 | 0.00 | 0.00 | 2 | 1003.7 |
| 20260502195249 | 18 | -1 | 8.0 | 8.0 | 0.00 | 0.00 | 0.00 | 3 | 999.9 |
| 20260502194742 | 18 | -1 | 8.0 | 12.9 | 0.00 | 0.00 | 0.00 | 2 | 999.7 |
| 20260502194235 | 18 | -1 | 6.4 | 12.9 | 0.00 | 0.00 | 0.00 | 2 | 1000.1 |
| 20260502193727 | 18 | -1 | 6.4 | 11.3 | 0.00 | 0.00 | 0.00 | 2 | 1000.3 |
| 20260502193220 | 18 | -1 | 6.4 | 11.3 | 0.00 | 0.00 | 0.00 | 2 | 1000.2 |
| 20260502192713 | 18 | -1 | 8.0 | 14.5 | 0.00 | 0.00 | 0.00 | 2 | 1000.1 |
| 20260502192206 | 19 | -1 | 6.4 | 12.9 | 0.00 | 0.00 | 0.00 | 2 | 1000.2 |
| 20260502191658 | 19 | -1 | 8.0 | 16.1 | 0.00 | 0.00 | 0.00 | 2 | 1000.1 |
| 20260502191151 | 19 | -1 | 14.5 | 20.9 | 0.00 | 0.00 | 0.00 | 2 | 999.9 |
| 20260502190644 | 19 | 270 | 0.0 | 0.0 | 0.00 | 0.00 | 0.00 | 2 | 1000.4 |
| 20260502190137 | 19 | -1 | 0.0 | 0.0 | 0.00 | 0.00 | 0.00 | 2 | 1000.6 |
| 20260502185630 | 19 | -1 | 0.0 | 0.0 | 0.00 | 0.00 | 0.00 | 2 | 1001.0 |
| 20260502185122 | 20 | -1 | 0.0 | 0.0 | 0.00 | 0.00 | 0.00 | 2 | 1000.2 |
| 20260502184615 | 20 | -1 | 0.0 | 0.0 | 0.00 | 0.00 | 0.00 | 2 | 1000.8 |
| 20260502184108 | 20 | -1 | 0.0 | 0.0 | 0.00 | 0.00 | 0.00 | 2 | 1000.7 |
| 20260502183601 | 20 | -1 | 0.0 | 0.0 | 0.00 | 0.00 | 0.00 | 2 | 1000.8 |
| 20260502183053 | 20 | -1 | 0.0 | 0.0 | 0.00 | 0.00 | 0.00 | 2 | 1000.6 |
| 20260502182545 | 20 | -1 | 0.0 | 0.0 | 0.00 | 0.00 | 0.00 | 2 | 1000.5 |
| 20260502182038 | 20 | -1 | 8.0 | 9.7 | 0.00 | 0.00 | 0.00 | 2 | 1000.9 |
| 20260502181530 | 20 | -1 | 6.4 | 12.9 | 0.00 | 0.00 | 0.00 | 2 | 1000.7 |
| 20260502181022 | 20 | -1 | 6.4 | 14.5 | 0.00 | 0.00 | 0.00 | 2 | 1000.6 |
| 20260502180515 | 20 | -1 | 6.4 | 12.9 | 0.00 | 0.00 | 0.00 | 2 | 1001.4 |
| 20260502170346 | 22 | -1 | 6.4 | 11.3 | 0.00 | 0.00 | 0.00 | 2 | 1004.1 |
| 20260502164315 | 22 | -1 | 8.0 | 14.5 | 0.00 | 0.00 | 0.00 | 2 | 1003.8 |
| 20260502163807 | 23 | -1 | 8.0 | 17.7 | 0.00 | 0.00 | 0.00 | 2 | 1003.6 |
| 20260502163259 | 23 | -1 | 9.7 | 22.5 | 0.00 | 0.00 | 0.00 | 2 | 1004.3 |
| 20260502162752 | 23 | -1 | 11.3 | 20.9 | 0.00 | 0.00 | 0.00 | 2 | 1002.7 |
| 20260502162245 | 23 | -1 | 11.3 | 20.9 | 0.00 | 0.00 | 0.00 | 2 | 1003.1 |
| 20260502161738 | 23 | -1 | 11.3 | 19.3 | 0.00 | 0.00 | 0.00 | 2 | 1003.2 |
| 20260502161231 | 23 | -1 | 9.7 | 19.3 | 0.00 | 0.00 | 0.00 | 2 | 1004.6 |
| 20260502160724 | 23 | -1 | 11.3 | 19.3 | 0.00 | 0.00 | 0.00 | 2 | 1004.9 |
| 20260502160217 | 23 | -1 | 12.9 | 24.1 | 0.00 | 0.00 | 0.00 | 2 | 1003.9 |
| 20260502152118 | 23 | 0 | 12.9 | 20.9 | 0.00 | 0.00 | 0.00 | 2 | 1001.5 |
| 20260502151611 | 23 | -1 | 12.9 | 24.1 | 0.00 | 0.00 | 0.00 | 2 | 1002.4 |
| 20260502151103 | 23 | -1 | 12.9 | 22.5 | 0.00 | 0.00 | 0.00 | 2 | 1002.6 |
| 20260502150555 | 24 | -1 | 8.0 | 12.9 | 0.00 | 0.00 | 0.00 | 2 | 1005.6 |
| 20260502130259 | 22 | -1 | 14.5 | 20.9 | 0.00 | 0.00 | 0.00 | 2 | 1007.7 |
| 20260502123721 | 23 | -1 | 12.9 | 20.9 | 0.00 | 0.00 | 0.00 | 2 | 1007.2 |
| 20260502123214 | 23 | 0 | 14.5 | 22.5 | 0.00 | 0.00 | 0.00 | 2 | 1008.0 |
| 20260502122707 | 23 | 0 | 11.3 | 22.5 | 0.00 | 0.00 | 0.00 | 2 | 1006.6 |
| 20260502122200 | 22 | 0 | 9.7 | 22.5 | 0.00 | 0.00 | 0.00 | 2 | 1007.5 |
| 20260502121653 | 22 | -1 | 8.0 | 14.5 | 0.00 | 0.00 | 0.00 | 2 | 1011.6 |
| 20260502121146 | 22 | -1 | 11.3 | 20.9 | 0.00 | 0.00 | 0.00 | 2 | 1008.3 |
| 20260502120639 | 22 | -1 | 14.5 | 24.1 | 0.00 | 0.00 | 0.00 | 2 | 1010.5 |
| 20260502120131 | 22 | -1 | 11.3 | 24.1 | 0.00 | 0.00 | 0.00 | 2 | 1009.9 |
| 20260502115624 | 22 | 0 | 14.5 | 24.1 | 0.00 | 0.00 | 0.00 | 2 | 1007.1 |
| 20260502115116 | 22 | -1 | 9.7 | 14.5 | 0.00 | 0.00 | 0.00 | 2 | 1012.1 |
| 20260502114609 | 22 | -1 | 12.9 | 20.9 | 0.00 | 0.00 | 0.00 | 2 | 1008.4 |
| 20260502114101 | 22 | -1 | 6.4 | 12.9 | 0.00 | 0.00 | 0.00 | 2 | 1010.8 |
| 20260502113554 | 21 | -1 | 12.9 | 16.1 | 0.00 | 0.00 | 0.00 | 2 | 1013.5 |
| 20260502113046 | 21 | -1 | 12.9 | 24.1 | 0.00 | 0.00 | 0.00 | 2 | 1013.4 |
| 20260502112538 | 21 | -1 | 11.3 | 20.9 | 0.00 | 0.00 | 0.00 | 2 | 1009.0 |
| 20260502112030 | 21 | -1 | 16.1 | 27.4 | 0.00 | 0.00 | 0.00 | 2 | 1010.2 |
| 20260502111522 | 21 | 0 | 12.9 | 20.9 | 0.00 | 0.00 | 0.00 | 2 | 1007.2 |
| 20260502111014 | 22 | -1 | 11.3 | 20.9 | 0.00 | 0.00 | 0.00 | 2 | 1008.2 |
| 20260502110507 | 21 | -1 | 11.3 | 22.5 | 0.00 | 0.00 | 0.00 | 2 | 1008.0 |
| 20260502110000 | 22 | -1 | 9.7 | 19.3 | 0.00 | 0.00 | 0.00 | 2 | 1010.0 |
| 20260502105452 | 22 | -1 | 16.1 | 24.1 | 0.00 | 0.00 | 0.00 | 2 | 1011.2 |
| 20260502104945 | 21 | -1 | 16.1 | 29.0 | 0.00 | 0.00 | 0.00 | 2 | 1007.3 |
| 20260502104438 | 21 | 0 | 8.0 | 12.9 | 0.00 | 0.00 | 0.00 | 2 | 1008.7 |
| 20260502103930 | 21 | -1 | 9.7 | 16.1 | 0.00 | 0.00 | 0.00 | 2 | 1013.8 |
| 20260502103422 | 21 | -1 | 11.3 | 19.3 | 0.00 | 0.00 | 0.00 | 2 | 1013.2 |
| 20260502102914 | 22 | -1 | 9.7 | 12.9 | 0.00 | 0.00 | 0.00 | 2 | 1011.4 |
| 20260502102407 | 21 | -1 | 6.4 | 8.0 | 0.00 | 0.00 | 0.00 | 2 | 1009.9 |
| 20260502101859 | 21 | 0 | 12.9 | 22.5 | 0.00 | 0.00 | 0.00 | 2 | 1008.1 |
| 20260502101351 | 20 | -1 | 12.9 | 22.5 | 0.00 | 0.00 | 0.00 | 2 | 1008.2 |
| 20260502100844 | 20 | -1 | 11.3 | 22.5 | 0.00 | 0.00 | 0.00 | 2 | 1008.7 |
| 20260502100336 | 20 | -1 | 9.7 | 17.7 | 0.00 | 0.00 | 0.00 | 2 | 1013.9 |
| 20260502091221 | 18 | -1 | 8.0 | 14.5 | 0.00 | 0.00 | 0.00 | 2 | 1014.3 |
| 20260502090713 | 18 | -1 | 9.7 | 19.3 | 0.00 | 0.00 | 0.00 | 3 | 1014.3 |
| 20260502090205 | 18 | 180 | 8.0 | 17.7 | 0.00 | 0.00 | 0.00 | 2 | 1017.1 |